Location: Middelsbur
(53.6609°N, 7.5020°E)
Time: 00:06:54
(UTC+00:00)

Cosmos 2360 Rocket - Pass Details

Date: 06 July 2020
Orbit: 832 x 847 km, 71.0° (Epoch: 03 August)

Event Time Altitude Azimuth Distance (km) Brightness Sun altitude
Rises 22:01:51 0° 245° (WSW) 3,390 5.3 -11.2°
Reaches altitude 10° 22:04:31 10° 255° (WSW) 2,461 4.7 -11.3°
Maximum altitude 22:09:36 33° 319° (NW) 1,383 4.1 -11.6°
Drops below altitude 10° 22:14:44 10° 23° (NNE) 2,479 5.4 -11.8°
Sets 22:17:27 0° 33° (NNE) 3,419 6.0 -12.0°
